Port Angeles, WA
on Friday, January 4, 2013

Friday
Previous Day Next Day
Daily Summary
 ActualAverageRecord
Temperature
Mean Temperature °F / °C °F / °C  
Max Temperature 45°F / 7°C 44°F / 6°C 56°F / 13°C (1984)
Min Temperature 36°F / 2°C 33°F / 0°C 14°F / -10°C (1959)
Degree Days
Heating Degree Days 24    
Moisture
Dew Point 38°F / 3°C   
Average Humidity 88    
Maximum Humidity 96    
Minimum Humidity 76    
Precipitation
Precipitation 0.00 in / 0.00 cm in / cm in / cm ()
Wind
Wind Speed 4 mph / 6 km/h   
Max Wind Speed 8 mph / 13 km/h   
Max Gust Speed mph / km/h   
Visibility 10 miles / 16 kilometers   
Events Rain   
Averages and records for this station are not official NWS values.
Key: T is trace of precipitation, MM is missing value
Source: NWS Daily Summary
Seasonal Weather Averages
Time(PST)TemperatureDew PointHumidity Pressure Visibility Wind DirectionWind SpeedGust SpeedPrecipitationEvents Conditions
12:21 AM 37.9°F / 3.3°C 35.1°F / 1.7°C 89% 30.09 in / 1018.8 hPa 10.0 miles / 16.1 kilometers WSW 6.9 mph / 11.1 km/h - N/A   Overcast
12:53 AM 36.0°F / 2.2°C 34.0°F / 1.1°C 93% 30.11 in / 1019.4 hPa 10.0 miles / 16.1 kilometers SW 4.6 mph / 7.4 km/h - N/A   Overcast
1:43 AM 37.0°F / 2.8°C 34.0°F / 1.1°C 89% 30.13 in / 1020.2 hPa 10.0 miles / 16.1 kilometers WSW 5.8 mph / 9.3 km/h - N/A   Overcast
1:53 AM 37.0°F / 2.8°C 35.1°F / 1.7°C 93% 30.15 in / 1020.8 hPa 10.0 miles / 16.1 kilometers WSW 8.1 mph / 13.0 km/h - N/A   Overcast
2:07 AM 37.9°F / 3.3°C 35.1°F / 1.7°C 89% 30.15 in / 1020.9 hPa 10.0 miles / 16.1 kilometers WSW 5.8 mph / 9.3 km/h - N/A   Overcast
2:53 AM 41.0°F / 5.0°C 37.9°F / 3.3°C 89% 30.18 in / 1021.8 hPa 10.0 miles / 16.1 kilometers West 3.5 mph / 5.6 km/h - N/A   Overcast
3:53 AM 37.9°F / 3.3°C 35.1°F / 1.7°C 89% 30.19 in / 1022.1 hPa 10.0 miles / 16.1 kilometers SW 3.5 mph / 5.6 km/h - N/A   Overcast
4:53 AM 37.4°F / 3.0°C 35.6°F / 2.0°C 93% 30.19 in / 1022.2 hPa 10.0 miles / 16.1 kilometers SW 3.5 mph / 5.6 km/h - N/A   Overcast
5:53 AM 37.9°F / 3.3°C 36.0°F / 2.2°C 93% 30.22 in / 1023.3 hPa 10.0 miles / 16.1 kilometers SSW 3.5 mph / 5.6 km/h - N/A   Overcast
6:53 AM 39.0°F / 3.9°C 37.0°F / 2.8°C 93% 30.23 in / 1023.6 hPa 10.0 miles / 16.1 kilometers Calm Calm - 0.00 in / 0.0 cm Rain Light Rain
7:53 AM 39.0°F / 3.9°C 37.9°F / 3.3°C 96% 30.24 in / 1024.0 hPa 10.0 miles / 16.1 kilometers Calm Calm - 0.00 in / 0.0 cm   Overcast
8:53 AM 39.9°F / 4.4°C 37.9°F / 3.3°C 93% 30.26 in / 1024.6 hPa 10.0 miles / 16.1 kilometers South 3.5 mph / 5.6 km/h - 0.00 in / 0.0 cm   Overcast
9:09 AM 39.9°F / 4.4°C 37.9°F / 3.3°C 93% 30.26 in / 1024.6 hPa 10.0 miles / 16.1 kilometers Calm Calm - N/A   Mostly Cloudy
9:53 AM 45.0°F / 7.2°C 39.9°F / 4.4°C 82% 30.28 in / 1025.4 hPa 10.0 miles / 16.1 kilometers Calm Calm - N/A   Overcast
10:27 AM 45.0°F / 7.2°C 39.9°F / 4.4°C 82% 30.28 in / 1025.3 hPa 10.0 miles / 16.1 kilometers Variable 4.6 mph / 7.4 km/h - N/A   Mostly Cloudy
10:53 AM 45.0°F / 7.2°C 37.9°F / 3.3°C 76% 30.29 in / 1025.7 hPa 10.0 miles / 16.1 kilometers SE 3.5 mph / 5.6 km/h - N/A   Partly Cloudy
11:53 AM 44.1°F / 6.7°C 37.9°F / 3.3°C 79% 30.29 in / 1025.6 hPa 10.0 miles / 16.1 kilometers NE 4.6 mph / 7.4 km/h - N/A   Partly Cloudy
12:15 PM 45.0°F / 7.2°C 39.0°F / 3.9°C 80% 30.28 in / 1025.3 hPa 10.0 miles / 16.1 kilometers Variable 3.5 mph / 5.6 km/h - N/A   Mostly Cloudy
12:53 PM 44.1°F / 6.7°C 39.0°F / 3.9°C 82% 30.28 in / 1025.3 hPa 10.0 miles / 16.1 kilometers East 5.8 mph / 9.3 km/h - N/A   Overcast
1:53 PM 45.0°F / 7.2°C 39.9°F / 4.4°C 82% 30.27 in / 1025.0 hPa 10.0 miles / 16.1 kilometers ESE 6.9 mph / 11.1 km/h - N/A   Overcast
2:21 PM 44.1°F / 6.7°C 39.9°F / 4.4°C 85% 30.25 in / 1024.3 hPa 10.0 miles / 16.1 kilometers ESE 5.8 mph / 9.3 km/h - N/A   Overcast
2:53 PM 44.1°F / 6.7°C 39.9°F / 4.4°C 85% 30.26 in / 1024.6 hPa 10.0 miles / 16.1 kilometers ESE 6.9 mph / 11.1 km/h - N/A   Overcast
3:53 PM 44.1°F / 6.7°C 39.9°F / 4.4°C 85% 30.27 in / 1025.0 hPa 10.0 miles / 16.1 kilometers SE 3.5 mph / 5.6 km/h - N/A   Overcast
4:53 PM 42.8°F / 6.0°C 39.2°F / 4.0°C 87% 30.23 in / 1023.6 hPa 10.0 miles / 16.1 kilometers SSE 4.6 mph / 7.4 km/h - N/A   Overcast
5:07 PM 44.1°F / 6.7°C 39.9°F / 4.4°C 85% 30.23 in / 1023.6 hPa 10.0 miles / 16.1 kilometers SE 4.6 mph / 7.4 km/h - N/A   Overcast
5:46 PM 44.1°F / 6.7°C 39.9°F / 4.4°C 85% 30.22 in / 1023.2 hPa 10.0 miles / 16.1 kilometers East 3.5 mph / 5.6 km/h - N/A   Overcast
5:53 PM 44.1°F / 6.7°C 39.9°F / 4.4°C 85% 30.23 in / 1023.6 hPa 10.0 miles / 16.1 kilometers Calm Calm - N/A   Overcast
6:53 PM 43.0°F / 6.1°C 39.9°F / 4.4°C 89% 30.22 in / 1023.3 hPa 10.0 miles / 16.1 kilometers Calm Calm - N/A   Overcast
7:53 PM 43.0°F / 6.1°C 39.9°F / 4.4°C 89% 30.21 in / 1022.8 hPa 10.0 miles / 16.1 kilometers Calm Calm - N/A   Overcast
8:16 PM 43.0°F / 6.1°C 39.9°F / 4.4°C 89% 30.19 in / 1022.2 hPa 10.0 miles / 16.1 kilometers ENE 3.5 mph / 5.6 km/h - N/A   Overcast
8:29 PM 43.0°F / 6.1°C 39.9°F / 4.4°C 89% 30.19 in / 1022.2 hPa 10.0 miles / 16.1 kilometers Calm Calm - N/A   Overcast
8:53 PM 43.0°F / 6.1°C 39.9°F / 4.4°C 89% 30.19 in / 1022.3 hPa 10.0 miles / 16.1 kilometers SE 6.9 mph / 11.1 km/h - N/A   Overcast
9:22 PM 42.1°F / 5.6°C 39.9°F / 4.4°C 92% 30.18 in / 1021.9 hPa 10.0 miles / 16.1 kilometers SSE 3.5 mph / 5.6 km/h - N/A   Overcast
9:49 PM 42.8°F / 6.0°C 39.2°F / 4.0°C 87% 30.18 in / 1021.9 hPa 10.0 miles / 16.1 kilometers SE 3.5 mph / 5.6 km/h - N/A   Overcast
9:53 PM 42.1°F / 5.6°C 39.9°F / 4.4°C 92% 30.18 in / 1022.0 hPa 10.0 miles / 16.1 kilometers SE 4.6 mph / 7.4 km/h - N/A   Overcast
10:53 PM 43.0°F / 6.1°C 39.9°F / 4.4°C 89% 30.18 in / 1021.8 hPa 10.0 miles / 16.1 kilometers ESE 4.6 mph / 7.4 km/h - N/A   Overcast
11:53 PM 44.1°F / 6.7°C 39.9°F / 4.4°C 85% 30.16 in / 1021.3 hPa 10.0 miles / 16.1 kilometers ESE 4.6 mph / 7.4 km/h - N/A   Overcast
Moon Phase
Jan. 04 Jan. 04 Jan. 11 Jan. 18 Jan. 26
Sunrise:08:03 AM (PST) Moon Rise:No Moon Rise/
Sunset:04:34 PM (PST) Moon Set:11:13 AM (PST)1/4

Copyright © 2014 The Weather Underground, Inc.